sat.trackr.live / text

‹ back to catalog

STARLINK-3527

NORAD 51726 · 2022-016N

PAYLOAD ACTIVE UNKNOWN

§ Identity

Operator
Country
US
Launch date
2022-02-21
Launch site
AFETR
Launch vehicle
Mass (kg)
RCS (m²)

Purposes: comms

External: N2YO · Heavens-Above · Gunter

§ Orbital elements

Epoch: 2026-09-20T04:55:01.966368Z

Period
95.08 min
Inclination
53.2145°
Eccentricity
0.0002162
Mean motion
15.14497257 rev/d
Perigee alt
521.0 km
Apogee alt
524.0 km
Semi-major
6,900.6 km
B*
6.5367e-4
RAAN
162.1686°
Arg perigee
98.6769°
Mean anomaly
261.4471°
Rev number
25,298

§ Raw data

STARLINK-35271 51726U 22016N   26263.20488387  .00011890  00000+0  65367-3 0  99992 51726  53.2145 162.1686 0002162  98.6769 261.4471 15.14497257252985

JSON: /api/v1/satellites/51726 · /tle

For live sub-satellite position, see the globe view (requires WebGL).

§ Visibility from observer

Set your observer location to see the next 7 days of passes ≥ 10°. The values pass through the URL so the page stays shareable.

No JS? Fill the form by hand. The geolocation button needs JavaScript.